| time (UTC) | temp F | wind direction | speed MPH | gust MPH | rain 1hr in | rain 24hr in | rain mn in | humidity % | barometer mb |
| 20260505070427 | 58 | 305 | 0.0 | 0.0 | 0.00 | 0.00 | 0.00 | 64 | 1015.2 |
| 20260505065923 | 58 | 335 | 1.0 | 1.0 | 0.00 | 0.00 | 0.00 | 64 | 1015.0 |
| 20260505065419 | 58 | 315 | 0.0 | 0.0 | 0.00 | 0.00 | 0.00 | 65 | 1015.0 |
| 20260505064916 | 57 | 306 | 0.0 | 0.0 | 0.00 | 0.00 | 0.00 | 66 | 1015.3 |
| 20260505064414 | 57 | 318 | 0.0 | 0.0 | 0.00 | 0.00 | 0.00 | 66 | 1015.0 |
| 20260505063912 | 57 | 304 | 1.0 | 1.0 | 0.00 | 0.00 | 0.00 | 65 | 1014.9 |
| 20260505063408 | 57 | 330 | 0.0 | 1.0 | 0.00 | 0.00 | 0.00 | 66 | 1015.2 |
| 20260505062904 | 57 | 295 | 0.0 | 0.0 | 0.00 | 0.00 | 0.00 | 66 | 1015.1 |
| 20260505062402 | 58 | 306 | 0.0 | 0.0 | 0.00 | 0.00 | 0.00 | 65 | 1015.2 |
| 20260505061858 | 58 | 306 | 0.0 | 0.0 | 0.00 | 0.00 | 0.00 | 65 | 1015.1 |
| 20260505061357 | 58 | 306 | 0.0 | 0.0 | 0.00 | 0.00 | 0.00 | 64 | 1015.0 |
| 20260505060854 | 59 | 303 | 0.0 | 0.0 | 0.00 | 0.00 | 0.00 | 63 | 1015.0 |
| 20260505060350 | 59 | 303 | 0.0 | 0.0 | 0.00 | 0.00 | 0.00 | 61 | 1015.1 |
| 20260505055847 | 59 | 317 | 0.0 | 0.0 | 0.00 | 0.00 | 0.00 | 61 | 1015.0 |
| 20260505055342 | 60 | 303 | 1.0 | 1.0 | 0.00 | 0.00 | 0.00 | 61 | 1015.0 |
| 20260505054840 | 61 | 301 | 0.0 | 1.0 | 0.00 | 0.00 | 0.00 | 57 | 1015.2 |
| 20260505054337 | 61 | 299 | 1.0 | 1.0 | 0.00 | 0.00 | 0.00 | 58 | 1015.0 |
| 20260505053835 | 63 | 225 | 2.0 | 3.0 | 0.00 | 0.00 | 0.00 | 53 | 1015.0 |
| 20260505053332 | 62 | 281 | 1.0 | 1.0 | 0.00 | 0.00 | 0.00 | 55 | 1015.0 |
| 20260505052829 | 61 | 309 | 1.0 | 1.0 | 0.00 | 0.00 | 0.00 | 58 | 1014.9 |
| 20260505052326 | 62 | 285 | 1.0 | 1.0 | 0.00 | 0.00 | 0.00 | 57 | 1015.2 |
| 20260505051823 | 63 | 328 | 1.0 | 1.0 | 0.00 | 0.00 | 0.00 | 55 | 1014.9 |
| 20260505051320 | 64 | 276 | 0.0 | 0.0 | 0.00 | 0.00 | 0.00 | 52 | 1015.0 |
| 20260505050818 | 65 | 280 | 1.0 | 2.0 | 0.00 | 0.00 | 0.00 | 50 | 1014.9 |
| 20260505050317 | 65 | 327 | 0.0 | 1.0 | 0.00 | 0.00 | 0.00 | 50 | 1014.9 |
| 20260505041746 | 67 | 3 | 3.0 | 3.0 | 0.00 | 0.00 | 0.00 | 48 | 1014.8 |
| 20260505041243 | 68 | 3 | 2.0 | 3.0 | 0.00 | 0.00 | 0.00 | 47 | 1014.8 |
| 20260505040741 | 67 | 318 | 1.0 | 1.0 | 0.00 | 0.00 | 0.00 | 48 | 1014.9 |
| 20260505040238 | 68 | 303 | 2.0 | 2.0 | 0.00 | 0.00 | 0.00 | 47 | 1014.8 |
| 20260505035735 | 68 | 359 | 4.0 | 5.0 | 0.00 | 0.00 | 0.00 | 47 | 1015.0 |
| 20260505035231 | 68 | 311 | 2.0 | 2.0 | 0.00 | 0.00 | 0.00 | 48 | 1015.1 |
| 20260505034728 | 68 | 296 | 1.0 | 2.0 | 0.00 | 0.00 | 0.00 | 48 | 1015.0 |
| 20260505034225 | 67 | 311 | 5.0 | 6.0 | 0.00 | 0.00 | 0.00 | 48 | 1015.1 |
| 20260505033721 | 66 | 318 | 4.0 | 5.0 | 0.00 | 0.00 | 0.00 | 51 | 1015.1 |
| 20260505033219 | 65 | 245 | 3.0 | 3.0 | 0.00 | 0.00 | 0.00 | 54 | 1015.1 |
| 20260505032717 | 64 | 295 | 0.0 | 0.0 | 0.00 | 0.00 | 0.00 | 59 | 1015.0 |
| 20260505032212 | 63 | 291 | 0.0 | 0.0 | 0.00 | 0.00 | 0.00 | 60 | 1015.0 |
| 20260505031710 | 63 | 239 | 0.0 | 1.0 | 0.00 | 0.00 | 0.00 | 61 | 1015.1 |
| 20260505031206 | 64 | 263 | 2.0 | 2.0 | 0.00 | 0.00 | 0.00 | 59 | 1015.3 |
| 20260505030703 | 64 | 298 | 0.0 | 1.0 | 0.00 | 0.00 | 0.00 | 58 | 1015.3 |
| 20260505030159 | 64 | 320 | 3.0 | 5.0 | 0.00 | 0.00 | 0.00 | 58 | 1014.8 |
| 20260505025655 | 64 | 290 | 2.0 | 3.0 | 0.00 | 0.00 | 0.00 | 59 | 1014.9 |
| 20260505025154 | 63 | 288 | 1.0 | 1.0 | 0.00 | 0.00 | 0.00 | 61 | 1015.1 |
| 20260505024651 | 62 | 316 | 2.0 | 2.0 | 0.00 | 0.00 | 0.00 | 64 | 1014.9 |
| 20260505024148 | 62 | 308 | 2.0 | 2.0 | 0.00 | 0.00 | 0.00 | 65 | 1015.1 |
| 20260505023646 | 61 | 316 | 1.0 | 1.0 | 0.00 | 0.00 | 0.00 | 66 | 1015.0 |
| 20260505023143 | 62 | 298 | 0.0 | 1.0 | 0.00 | 0.00 | 0.00 | 66 | 1015.2 |
| 20260505022640 | 61 | 304 | 1.0 | 1.0 | 0.00 | 0.00 | 0.00 | 66 | 1015.1 |
| 20260505022137 | 61 | 306 | 1.0 | 1.0 | 0.00 | 0.00 | 0.00 | 66 | 1015.0 |
| 20260505021634 | 61 | 298 | 1.0 | 1.0 | 0.00 | 0.00 | 0.00 | 67 | 1015.3 |
| 20260505021131 | 61 | 306 | 1.0 | 1.0 | 0.00 | 0.00 | 0.00 | 67 | 1015.0 |
| 20260505020626 | 61 | 300 | 2.0 | 2.0 | 0.00 | 0.00 | 0.00 | 67 | 1015.1 |
| 20260505020123 | 61 | 310 | 1.0 | 1.0 | 0.00 | 0.00 | 0.00 | 67 | 1015.1 |
| 20260505015620 | 61 | 302 | 1.0 | 1.0 | 0.00 | 0.00 | 0.00 | 68 | 1015.0 |
| 20260505015116 | 62 | 304 | 1.0 | 2.0 | 0.00 | 0.00 | 0.00 | 67 | 1015.2 |
| 20260505014613 | 62 | 300 | 1.0 | 1.0 | 0.00 | 0.00 | 0.00 | 67 | 1015.0 |
| 20260505014110 | 62 | 303 | 2.0 | 2.0 | 0.00 | 0.00 | 0.00 | 66 | 1015.0 |
| 20260505013608 | 62 | 284 | 1.0 | 2.0 | 0.00 | 0.00 | 0.00 | 66 | 1015.1 |
| 20260505013105 | 62 | 290 | 2.0 | 2.0 | 0.00 | 0.00 | 0.00 | 66 | 1014.8 |
| 20260505012603 | 63 | 301 | 2.0 | 2.0 | 0.00 | 0.00 | 0.00 | 65 | 1014.8 |
| 20260505012059 | 63 | 294 | 1.0 | 1.0 | 0.00 | 0.00 | 0.00 | 63 | 1014.9 |
| 20260505011555 | 64 | 296 | 1.0 | 1.0 | 0.00 | 0.00 | 0.00 | 63 | 1014.6 |
| 20260505011053 | 64 | 305 | 1.0 | 1.0 | 0.00 | 0.00 | 0.00 | 63 | 1014.5 |
| 20260505010548 | 64 | 290 | 2.0 | 2.0 | 0.00 | 0.00 | 0.00 | 63 | 1014.4 |
| 20260505010044 | 64 | 299 | 1.0 | 2.0 | 0.00 | 0.00 | 0.00 | 63 | 1014.5 |
| 20260505005541 | 64 | 292 | 1.0 | 1.0 | 0.00 | 0.00 | 0.00 | 63 | 1014.4 |
| 20260505005038 | 65 | 293 | 2.0 | 2.0 | 0.00 | 0.00 | 0.00 | 62 | 1014.3 |
| 20260505004535 | 65 | 299 | 1.0 | 1.0 | 0.00 | 0.00 | 0.00 | 63 | 1014.2 |
| 20260505004032 | 65 | 286 | 2.0 | 2.0 | 0.00 | 0.00 | 0.00 | 62 | 1014.0 |
| 20260505003529 | 66 | 298 | 1.0 | 1.0 | 0.00 | 0.00 | 0.00 | 62 | 1014.0 |
| 20260505003026 | 67 | 297 | 0.0 | 1.0 | 0.00 | 0.00 | 0.00 | 60 | 1014.0 |
| 20260505002521 | 67 | 293 | 1.0 | 2.0 | 0.00 | 0.00 | 0.00 | 59 | 1013.9 |
| 20260505002021 | 68 | 293 | 2.0 | 2.0 | 0.00 | 0.00 | 0.00 | 58 | 1013.8 |
| 20260505001517 | 68 | 294 | 2.0 | 2.0 | 0.00 | 0.00 | 0.00 | 58 | 1013.7 |
| 20260505001014 | 69 | 300 | 2.0 | 2.0 | 0.00 | 0.00 | 0.00 | 56 | 1013.9 |
| 20260505000512 | 71 | 293 | 2.0 | 2.0 | 0.00 | 0.00 | 0.00 | 52 | 1013.8 |
| 20260505000009 | 72 | 298 | 2.0 | 2.0 | 0.00 | 0.00 | 0.00 | 49 | 1013.7 |
| 20260504235506 | 73 | 301 | 1.0 | 2.0 | 0.00 | 0.00 | 0.00 | 45 | 1013.7 |
| 20260504235002 | 74 | 296 | 0.0 | 1.0 | 0.00 | 0.00 | 0.00 | 44 | 1013.6 |
| 20260504234500 | 75 | 316 | 2.0 | 2.0 | 0.00 | 0.00 | 0.00 | 41 | 1013.5 |
| 20260504233956 | 75 | 320 | 1.0 | 2.0 | 0.00 | 0.00 | 0.00 | 41 | 1013.5 |
| 20260504233451 | 76 | 292 | 1.0 | 2.0 | 0.00 | 0.00 | 0.00 | 40 | 1013.4 |
| 20260504232949 | 76 | 308 | 2.0 | 2.0 | 0.00 | 0.00 | 0.00 | 40 | 1013.6 |
| 20260504232446 | 77 | 258 | 4.0 | 6.0 | 0.00 | 0.00 | 0.00 | 40 | 1013.6 |
| 20260504231943 | 77 | 293 | 1.0 | 1.0 | 0.00 | 0.00 | 0.00 | 40 | 1013.4 |
| 20260504231439 | 77 | 262 | 2.0 | 2.0 | 0.00 | 0.00 | 0.00 | 40 | 1013.6 |
| 20260504230935 | 76 | 326 | 3.0 | 5.0 | 0.00 | 0.00 | 0.00 | 40 | 1013.5 |
| 20260504230432 | 77 | 135 | 5.0 | 7.0 | 0.00 | 0.00 | 0.00 | 39 | 1013.5 |
| 20260504225932 | 77 | 161 | 3.0 | 5.0 | 0.00 | 0.00 | 0.00 | 39 | 1013.4 |
| 20260504225428 | 77 | 92 | 3.0 | 3.0 | 0.00 | 0.00 | 0.00 | 39 | 1013.7 |
| 20260504224925 | 77 | 259 | 1.0 | 2.0 | 0.00 | 0.00 | 0.00 | 39 | 1013.4 |
| 20260504224422 | 77 | 285 | 2.0 | 2.0 | 0.00 | 0.00 | 0.00 | 39 | 1013.6 |
| 20260504223919 | 78 | 301 | 5.0 | 7.0 | 0.00 | 0.00 | 0.00 | 38 | 1013.6 |
| 20260504223414 | 78 | 306 | 3.0 | 3.0 | 0.00 | 0.00 | 0.00 | 39 | 1013.7 |
| 20260504222910 | 78 | 176 | 6.0 | 8.0 | 0.00 | 0.00 | 0.00 | 38 | 1013.4 |
| 20260504222408 | 78 | 299 | 2.0 | 3.0 | 0.00 | 0.00 | 0.00 | 39 | 1013.7 |
| 20260504221906 | 78 | 328 | 5.0 | 7.0 | 0.00 | 0.00 | 0.00 | 40 | 1013.7 |
| 20260504221402 | 77 | 307 | 2.0 | 2.0 | 0.00 | 0.00 | 0.00 | 40 | 1013.8 |
| 20260504220900 | 79 | 287 | 5.0 | 10.0 | 0.00 | 0.00 | 0.00 | 40 | 1013.9 |
| 20260504220356 | 77 | 281 | 1.0 | 1.0 | 0.00 | 0.00 | 0.00 | 41 | 1013.9 |
| 20260504215853 | 77 | 218 | 2.0 | 3.0 | 0.00 | 0.00 | 0.00 | 41 | 1014.0 |
| 20260504215350 | 77 | 228 | 2.0 | 5.0 | 0.00 | 0.00 | 0.00 | 40 | 1014.0 |
| 20260504214846 | 77 | 189 | 1.0 | 2.0 | 0.00 | 0.00 | 0.00 | 41 | 1013.9 |
| 20260504214343 | 78 | 351 | 5.0 | 7.0 | 0.00 | 0.00 | 0.00 | 40 | 1014.0 |
| 20260504213840 | 78 | 310 | 2.0 | 2.0 | 0.00 | 0.00 | 0.00 | 41 | 1013.9 |
| 20260504213335 | 77 | 248 | 1.0 | 2.0 | 0.00 | 0.00 | 0.00 | 42 | 1014.0 |
| 20260504212833 | 77 | 242 | 4.0 | 8.0 | 0.00 | 0.00 | 0.00 | 41 | 1014.2 |
| 20260504212329 | 78 | 178 | 5.0 | 6.0 | 0.00 | 0.00 | 0.00 | 41 | 1014.1 |
| 20260504211827 | 77 | 235 | 0.0 | 1.0 | 0.00 | 0.00 | 0.00 | 42 | 1014.1 |
| 20260504211322 | 78 | 300 | 4.0 | 5.0 | 0.00 | 0.00 | 0.00 | 42 | 1014.1 |
| 20260504210820 | 77 | 200 | 4.0 | 5.0 | 0.00 | 0.00 | 0.00 | 42 | 1013.7 |
| 20260504210317 | 76 | 111 | 5.0 | 8.0 | 0.00 | 0.00 | 0.00 | 43 | 1014.0 |
| 20260504205814 | 76 | 201 | 4.0 | 7.0 | 0.00 | 0.00 | 0.00 | 43 | 1013.9 |
| 20260504205312 | 76 | 294 | 4.0 | 5.0 | 0.00 | 0.00 | 0.00 | 43 | 1013.9 |
| 20260504204810 | 77 | 164 | 7.0 | 11.0 | 0.00 | 0.00 | 0.00 | 43 | 1013.8 |
| 20260504204308 | 76 | 301 | 2.0 | 2.0 | 0.00 | 0.00 | 0.00 | 44 | 1014.0 |
| 20260504203807 | 77 | 132 | 7.0 | 8.0 | 0.00 | 0.00 | 0.00 | 42 | 1013.9 |
| 20260504203304 | 76 | 330 | 2.0 | 2.0 | 0.00 | 0.00 | 0.00 | 44 | 1013.9 |
| 20260504202758 | 76 | 177 | 3.0 | 3.0 | 0.00 | 0.00 | 0.00 | 44 | 1013.8 |
| 20260504202256 | 75 | 294 | 3.0 | 3.0 | 0.00 | 0.00 | 0.00 | 44 | 1014.0 |
| 20260504201753 | 74 | 268 | 2.0 | 2.0 | 0.00 | 0.00 | 0.00 | 45 | 1014.1 |
| 20260504201250 | 74 | 167 | 5.0 | 6.0 | 0.00 | 0.00 | 0.00 | 45 | 1014.2 |
| 20260504200748 | 74 | 315 | 5.0 | 7.0 | 0.00 | 0.00 | 0.00 | 45 | 1014.4 |
| 20260504200243 | 74 | 61 | 5.0 | 8.0 | 0.00 | 0.00 | 0.00 | 44 | 1014.6 |
| 20260504195740 | 74 | 191 | 3.0 | 3.0 | 0.00 | 0.00 | 0.00 | 44 | 1014.6 |
| 20260504195236 | 74 | 167 | 5.0 | 7.0 | 0.00 | 0.00 | 0.00 | 45 | 1014.7 |
| 20260504194734 | 75 | 167 | 2.0 | 2.0 | 0.00 | 0.00 | 0.00 | 46 | 1014.6 |
| 20260504194229 | 74 | 251 | 2.0 | 2.0 | 0.00 | 0.00 | 0.00 | 45 | 1014.6 |
| 20260504193726 | 74 | 144 | 4.0 | 6.0 | 0.00 | 0.00 | 0.00 | 45 | 1014.6 |
| 20260504193224 | 74 | 213 | 5.0 | 6.0 | 0.00 | 0.00 | 0.00 | 45 | 1014.6 |
| 20260504192722 | 73 | 335 | 3.0 | 3.0 | 0.00 | 0.00 | 0.00 | 45 | 1015.1 |
| 20260504192220 | 73 | 86 | 3.0 | 3.0 | 0.00 | 0.00 | 0.00 | 46 | 1014.9 |
| 20260504191718 | 73 | 339 | 1.0 | 2.0 | 0.00 | 0.00 | 0.00 | 45 | 1015.2 |
| 20260504191215 | 73 | 201 | 5.0 | 6.0 | 0.00 | 0.00 | 0.00 | 45 | 1015.0 |
| 20260504190710 | 73 | 198 | 4.0 | 7.0 | 0.00 | 0.00 | 0.00 | 46 | 1015.3 |
| 20260504190206 | 73 | 182 | 9.0 | 13.0 | 0.00 | 0.00 | 0.00 | 46 | 1015.2 |
| 20260504185703 | 74 | 288 | 1.0 | 2.0 | 0.00 | 0.00 | 0.00 | 44 | 1015.1 |
| 20260504185159 | 73 | 222 | 5.0 | 6.0 | 0.00 | 0.00 | 0.00 | 45 | 1015.3 |
| 20260504184656 | 73 | 183 | 8.0 | 9.0 | 0.00 | 0.00 | 0.00 | 45 | 1015.3 |
| 20260504184151 | 73 | 290 | 4.0 | 5.0 | 0.00 | 0.00 | 0.00 | 45 | 1015.4 |
| 20260504183648 | 71 | 151 | 4.0 | 6.0 | 0.00 | 0.00 | 0.00 | 47 | 1015.2 |
| 20260504183145 | 71 | 165 | 6.0 | 7.0 | 0.00 | 0.00 | 0.00 | 47 | 1015.6 |
| 20260504182643 | 71 | 208 | 4.0 | 7.0 | 0.00 | 0.00 | 0.00 | 47 | 1015.7 |
| 20260504182140 | 71 | 149 | 1.0 | 3.0 | 0.00 | 0.00 | 0.00 | 47 | 1015.6 |
| 20260504181638 | 71 | 228 | 4.0 | 5.0 | 0.00 | 0.00 | 0.00 | 47 | 1015.8 |
| 20260504181135 | 71 | 184 | 5.0 | 6.0 | 0.00 | 0.00 | 0.00 | 46 | 1015.8 |
| 20260504180634 | 71 | 306 | 2.0 | 5.0 | 0.00 | 0.00 | 0.00 | 46 | 1015.9 |
| 20260504180132 | 71 | 305 | 5.0 | 7.0 | 0.00 | 0.00 | 0.00 | 46 | 1016.0 |
| 20260504175629 | 71 | 190 | 2.0 | 2.0 | 0.00 | 0.00 | 0.00 | 46 | 1015.8 |
| 20260504175126 | 71 | 246 | 4.0 | 6.0 | 0.00 | 0.00 | 0.00 | 46 | 1016.2 |
| 20260504174624 | 72 | 308 | 2.0 | 3.0 | 0.00 | 0.00 | 0.00 | 45 | 1016.3 |
| 20260504174120 | 72 | 218 | 5.0 | 7.0 | 0.00 | 0.00 | 0.00 | 44 | 1016.3 |
| 20260504173617 | 73 | 185 | 6.0 | 9.0 | 0.00 | 0.00 | 0.00 | 43 | 1016.2 |
| 20260504173115 | 72 | 260 | 6.0 | 8.0 | 0.00 | 0.00 | 0.00 | 44 | 1016.3 |
| 20260504172611 | 72 | 149 | 11.0 | 15.0 | 0.00 | 0.00 | 0.00 | 44 | 1016.0 |
| 20260504172108 | 70 | 282 | 6.0 | 8.0 | 0.00 | 0.00 | 0.00 | 45 | 1016.5 |
| 20260504171604 | 72 | 43 | 3.0 | 5.0 | 0.00 | 0.00 | 0.00 | 45 | 1016.5 |
| 20260504171101 | 72 | 165 | 3.0 | 6.0 | 0.00 | 0.00 | 0.00 | 44 | 1016.5 |
| 20260504170557 | 72 | 345 | 3.0 | 5.0 | 0.00 | 0.00 | 0.00 | 43 | 1016.5 |
| 20260504150941 | 66 | 279 | 6.0 | 8.0 | 0.00 | 0.00 | 0.00 | 46 | 1017.8 |
| 20260504150438 | 66 | 213 | 5.0 | 7.0 | 0.00 | 0.00 | 0.00 | 46 | 1018.1 |
| 20260504140904 | 62 | 135 | 7.0 | 11.0 | 0.00 | 0.00 | 0.00 | 49 | 1018.2 |
| 20260504140400 | 61 | 290 | 8.0 | 13.0 | 0.00 | 0.00 | 0.00 | 50 | 1018.5 |
| 20260504130325 | 58 | 268 | 7.0 | 10.0 | 0.00 | 0.00 | 0.00 | 51 | 1018.2 |
| 20260504120248 | 51 | 199 | 2.0 | 2.0 | 0.00 | 0.00 | 0.00 | 66 | 1018.4 |
| 20260504110716 | 48 | 274 | 0.0 | 0.0 | 0.00 | 0.00 | 0.00 | 69 | 1018.5 |
| 20260504110212 | 48 | 287 | 1.0 | 1.0 | 0.00 | 0.00 | 0.00 | 69 | 1018.3 |
| 20260504100131 | 48 | 295 | 1.0 | 1.0 | 0.00 | 0.00 | 0.00 | 69 | 1018.3 |
| 20260504081524 | 49 | 266 | 1.0 | 2.0 | 0.00 | 0.00 | 0.00 | 64 | 1018.2 |
| 20260504081019 | 49 | 270 | 0.0 | 1.0 | 0.00 | 0.00 | 0.00 | 64 | 1018.2 |
| 20260504080516 | 49 | 262 | 2.0 | 2.0 | 0.00 | 0.00 | 0.00 | 63 | 1018.1 |